Date String (YYYY-MM-DD hh:mm:ss) UTC,Instrument flags,Ambient pressure (hPa),Sample flow (lpm),Bypass flow (lpm),Sample temperature (°C),Ambient temperature (°C),ASC tube jacket temperature (°C),LED temperature (°C),Box temperature (°C),Sample RH (%),Span deviation,Mass concentration (μg/m³),Mass concentration (μg/m³),Mass concentration (μg/m³)
DateTimeUTC,F1_M11,P_M11,Q1_M11,Q2_M11,T1_M11,T2_M11,T3_M11,T4_M11,T5_M11,U1_M11,ZSPAN_M11,X0_M11,X2_M11,X1_M11
2022-04-15 22:00:00,,0819.2,4.99,0.00,27.0,26.4,00.0,35.8,28.9,10.2,0000.0,0024.09,0006.13,0004.19
2022-04-15 22:01:00,,0819.2,4.99,0.00,27.0,26.4,00.0,35.8,29.0,09.4,0000.0,0024.31,0006.09,0004.20
2022-04-15 22:02:00,,0819.2,5.01,0.00,27.1,26.4,00.0,35.8,29.0,09.3,0000.0,0022.59,0005.94,0004.11
2022-04-15 22:03:00,,0819.3,5.01,0.00,27.1,26.5,00.0,35.8,29.0,09.7,0000.0,0021.99,0005.82,0004.05
2022-04-15 22:04:00,,0819.2,5.00,0.00,27.1,26.5,00.0,35.9,29.0,09.4,0000.0,0020.89,0005.67,0003.97
2022-04-15 22:05:00,,0819.2,5.00,0.00,27.1,26.5,00.0,35.9,29.1,09.4,0000.0,0019.61,0005.50,0003.86
2022-04-15 22:06:00,,0819.3,5.00,0.00,27.2,26.6,00.0,35.9,29.1,09.4,0000.0,0018.16,0005.32,0003.75
2022-04-15 22:07:00,,0819.4,4.99,0.00,27.2,26.5,00.0,35.9,29.1,09.8,0000.0,0018.88,0005.22,0003.67
2022-04-15 22:08:00,,0819.4,5.02,0.00,27.2,26.5,00.0,35.9,29.1,10.2,0000.0,0019.51,0005.24,0003.67
2022-04-15 22:09:00,,0819.3,4.99,0.00,27.2,26.5,00.0,35.9,29.0,09.2,0000.0,0019.11,0005.18,0003.61
2022-04-15 22:10:00,,0819.3,5.00,0.00,27.2,26.5,00.0,36.0,29.0,08.7,0000.0,0017.30,0004.97,0003.46
2022-04-15 22:11:00,,0819.2,5.00,0.00,27.2,26.5,00.0,36.0,29.0,08.7,0000.0,0015.62,0004.78,0003.36
2022-04-15 22:12:00,,0819.2,5.01,0.00,27.2,26.5,00.0,36.0,29.0,08.8,0000.0,0014.74,0004.69,0003.28
2022-04-15 22:13:00,,0819.2,5.01,0.00,27.2,26.5,00.0,36.0,29.0,08.7,0000.0,0014.10,0004.62,0003.24
2022-04-15 22:14:00,,0819.2,5.00,0.00,27.1,26.5,00.0,36.0,29.0,08.7,0000.0,0013.59,0004.55,0003.17
2022-04-15 22:15:00,,0819.2,4.99,0.00,27.2,26.5,00.0,36.0,29.0,08.8,0000.0,0012.89,0004.47,0003.06
2022-04-15 22:16:00,,0819.3,5.00,0.00,27.2,26.5,00.0,36.0,29.0,08.9,0000.0,0013.16,0004.42,0002.96
2022-04-15 22:17:00,,0819.2,5.00,0.00,27.2,26.5,00.0,36.0,29.0,08.8,0000.0,0012.94,0004.32,0002.89
2022-04-15 22:18:00,,0819.2,5.00,0.00,27.2,26.5,00.0,36.0,29.0,08.7,0000.0,0011.58,0004.21,0002.75
2022-04-15 22:19:00,,0819.4,5.00,0.00,27.2,26.6,00.0,36.0,29.0,08.8,0000.0,0010.81,0004.02,0002.51
2022-04-15 22:20:00,,0819.5,5.00,0.00,27.2,26.6,00.0,36.0,29.1,08.8,0000.0,0010.17,0003.87,0002.34
2022-04-15 22:21:00,,0819.5,5.00,0.00,27.2,26.6,00.0,36.0,29.1,09.0,0000.0,0010.32,0003.93,0002.35
2022-04-15 22:22:00,,0819.6,5.01,0.00,27.2,26.6,00.0,36.1,29.1,08.9,0000.0,0009.86,0003.92,0002.33
2022-04-15 22:23:00,,0819.5,5.01,0.00,27.2,26.6,00.0,36.1,29.1,08.8,0000.0,0009.84,0003.92,0002.34
2022-04-15 22:24:00,,0819.5,5.00,0.00,27.2,26.6,00.0,36.1,29.1,08.9,0000.0,0009.80,0003.94,0002.33
2022-04-15 22:25:00,,0819.5,4.99,0.00,27.2,26.5,00.0,36.1,29.1,08.8,0000.0,0010.15,0003.97,0002.31
2022-04-15 22:26:00,,0819.5,5.00,0.00,27.2,26.5,00.0,36.1,29.0,08.8,0000.0,0010.24,0003.98,0002.31
2022-04-15 22:27:00,,0819.6,4.99,0.00,27.2,26.5,00.0,36.1,29.0,08.8,0000.0,0009.57,0003.98,0002.30
2022-04-15 22:28:00,,0819.7,5.00,0.00,27.2,26.4,00.0,36.1,29.0,09.8,0000.0,0009.63,0004.13,0002.44
2022-04-15 22:29:00,,0819.7,5.01,0.00,27.1,26.4,00.0,36.1,28.9,09.8,0000.0,0010.32,0004.31,0002.61
2022-04-15 22:30:00,,0819.7,4.99,0.00,27.1,26.4,00.0,36.1,28.9,09.5,0000.0,0010.23,0004.35,0002.72
2022-04-15 22:31:00,,0819.7,4.99,0.00,27.1,26.4,00.0,36.1,28.9,08.9,0000.0,0010.37,0004.36,0002.71
2022-04-15 22:32:00,,0819.6,5.00,0.00,27.1,26.4,00.0,36.1,28.9,08.8,0000.0,0010.54,0004.33,0002.74
2022-04-15 22:33:00,,0819.7,5.01,0.00,27.1,26.5,00.0,36.1,28.9,08.8,0000.0,0011.39,0004.34,0002.75
2022-04-15 22:34:00,,0819.7,5.00,0.00,27.2,26.5,00.0,36.1,29.0,09.2,0000.0,0011.87,0004.31,0002.75
2022-04-15 22:35:00,,0819.7,5.00,0.00,27.2,26.5,00.0,36.1,29.0,09.5,0000.0,0013.00,0004.41,0002.88
2022-04-15 22:36:00,,0819.8,5.00,0.00,27.2,26.5,00.0,36.1,29.1,09.5,0000.0,0014.62,0004.52,0003.10
2022-04-15 22:37:00,,0819.8,4.99,0.00,27.2,26.6,00.0,36.1,29.1,09.4,0000.0,0015.38,0004.68,0003.26
2022-04-15 22:38:00,,0819.9,5.00,0.00,27.3,26.6,00.0,36.1,29.1,09.5,0000.0,0015.88,0004.86,0003.40
2022-04-15 22:39:00,,0819.9,4.99,0.00,27.3,26.6,00.0,36.1,29.2,09.4,0000.0,0016.05,0004.98,0003.50
2022-04-15 22:40:00,,0820.0,5.01,0.00,27.3,26.7,00.0,36.1,29.2,09.4,0000.0,0016.07,0004.98,0003.54
2022-04-15 22:41:00,,0819.9,5.00,0.00,27.3,26.7,00.0,36.1,29.2,09.4,0000.0,0016.64,0005.07,0003.60
2022-04-15 22:42:00,,0819.9,4.99,0.00,27.3,26.7,00.0,36.1,29.2,09.4,0000.0,0016.97,0005.26,0003.74
2022-04-15 22:43:00,,0819.9,5.00,0.00,27.4,26.8,00.0,36.2,29.3,09.4,0000.0,0017.13,0005.44,0003.86
2022-04-15 22:44:00,,0819.9,5.01,0.00,27.4,26.8,00.0,36.2,29.3,09.5,0000.0,0017.32,0005.62,0003.98
2022-04-15 22:45:00,,0819.9,5.00,0.00,27.4,26.8,00.0,36.2,29.3,09.5,0000.0,0017.56,0005.82,0004.12
2022-04-15 22:46:00,,0819.9,5.00,0.00,27.4,26.8,00.0,36.2,29.3,09.5,0000.0,0017.94,0005.88,0004.21
2022-04-15 22:47:00,,0819.9,5.00,0.00,27.4,26.8,00.0,36.2,29.3,09.4,0000.0,0017.00,0005.89,0004.22
2022-04-15 22:48:00,,0819.9,4.99,0.00,27.5,26.9,00.0,36.2,29.3,09.3,0000.0,0017.63,0005.89,0004.22
2022-04-15 22:49:00,,0819.9,5.00,0.00,27.5,26.9,00.0,36.2,29.4,09.3,0000.0,0017.06,0005.86,0004.22
2022-04-15 22:50:00,,0819.9,5.01,0.00,27.5,26.9,00.0,36.3,29.4,09.3,0000.0,0018.22,0005.85,0004.21
2022-04-15 22:51:00,,0819.9,5.01,0.00,27.5,26.9,00.0,36.3,29.4,09.4,0000.0,0019.25,0005.84,0004.21
2022-04-15 22:52:00,,0819.9,4.99,0.00,27.5,26.9,00.0,36.3,29.4,09.3,0000.0,0019.52,0005.84,0004.20
2022-04-15 22:53:00,,0819.9,4.99,0.00,27.5,26.9,00.0,36.3,29.4,09.3,0000.0,0019.89,0005.85,0004.20
2022-04-15 22:54:00,,0819.9,5.00,0.00,27.5,26.9,00.0,36.3,29.4,09.4,0000.0,0020.05,0005.82,0004.19
2022-04-15 22:55:00,,0819.9,5.01,0.00,27.6,26.9,00.0,36.3,29.4,09.5,0000.0,0019.70,0005.71,0004.11
2022-04-15 22:56:00,,0819.9,5.00,0.00,27.6,27.0,00.0,36.3,29.5,09.5,0000.0,0019.76,0005.64,0004.06
2022-04-15 22:57:00,,0819.9,5.00,0.00,27.6,27.0,00.0,36.4,29.5,09.5,0000.0,0019.52,0005.67,0004.05
2022-04-15 22:58:00,,0819.9,4.99,0.00,27.6,27.0,00.0,36.4,29.5,09.3,0000.0,0020.26,0005.74,0004.05
2022-04-15 22:59:00,,0819.9,5.01,0.00,27.6,27.0,00.0,36.4,29.5,09.1,0000.0,0019.39,0005.78,0004.05
